Location: Strohbehn Observatory
(42.4649°N, 93.8239°W)
Time: 14:35:32
(UTC-06:00)

Daily predictions for brighter satellites

Satellite Brightness Start Highest point End
(mag) Time Altitude Azimuth Time Altitude Azimuth Time Altitude Azimuth
Meteor 1-13 Rocket 4.3 18:22:03 10° N 18:27:34 59° ENE 18:33:10 10° SSE
Cosmos 2219 3.8 18:26:24 10° S 18:31:39 38° ESE 18:36:54 10° NE
Abrixas rocket 2.8 18:30:32 10° SW 18:33:44 43° SE 18:36:58 10° ENE
FREGAT/IRIS 3.4 18:31:04 10° SE 18:33:52 32° ENE 18:36:41 10° N
Cosmos 2227 Rocket 3.9 18:32:33 10° ESE 18:34:10 11° E 18:35:48 10° ENE
Cosmos 1023 Rocket 4.4 18:30:08 10° SSW 18:35:12 74° ESE 18:40:21 10° NNE
Cosmos 1300 Rocket 3.6 18:34:06 10° S 18:38:27 62° E 18:42:51 10° NNE
Cosmos 1536 3.3 18:36:04 10° SSE 18:39:44 36° E 18:43:25 10° NNE
Okean 1 4.4 18:38:02 10° NNW 18:42:00 51° W 18:45:56 10° S
SL-16 R/B 4.1 18:43:45 10° NNE 18:44:58 11° NE 18:46:11 10° NE
Cosmos 1340 3.3 18:45:49 10° NNW 18:49:34 62° W 18:53:17 10° S
COSMO-SKYMED 1 3.5 18:45:46 10° N 18:50:00 54° WNW 18:54:14 10° SSW
Cosmos 1602 3.8 18:47:30 10° S 18:51:23 84° W 18:55:20 10° N
Cosmos 1741 Rocket 3.9 18:53:14 10° S 18:58:26 72° ESE 19:03:38 10° NNE
Resurs 01 Rocket 2.0 18:56:29 10° SE 19:00:35 40° ENE 19:04:44 10° N
NOAA 12 4.4 18:59:16 10° S 19:04:34 73° WSW 19:09:55 10° NNW
Meteor 1-11 Rocket 3.9 19:00:32 10° SSW 19:06:21 83° W 19:12:20 10° N
Cosmos 1140 Rocket 4.1 19:02:08 10° SSW 19:07:12 58° WNW 19:12:19 10° NNE
Cosmos 614 Rocket 4.1 19:02:53 10° SSW 19:07:57 75° WNW 19:13:02 10° NNE
Cosmos 2333 Rocket 2.7 19:03:09 10° N 19:08:32 39° ENE 19:12:59 14° ESE
Cosmos 1980 4.4 19:04:26 10° N 19:09:30 32° NE 19:12:50 18° ESE
Resurs 1-3 3.9 19:06:50 10° SE 19:10:59 44° ENE 19:15:10 10° N
GPS 2-04 Rocket1 4.0 19:08:00 10° WSW 19:11:47 32° S 19:14:12 18° ESE
FENGYUN 3A 3.6 19:06:43 10° SSE 19:12:06 71° ENE 19:17:31 10° N
GEOS 3 Rocket 4.2 19:08:20 10° NE 19:13:10 37° ESE 19:18:01 10° S
Cosmos 1633 4.2 19:10:08 10° SSW 19:13:34 37° WNW 19:17:02 10° N
Genesis I 4.3 19:11:39 10° NW 19:15:25 44° WSW 19:19:09 10° S
Cosmos 1570 Rocket 4.3 19:11:33 10° NNW 19:16:47 73° WSW 19:21:59 10° S
Okean 1 Rocket 3.6 19:14:54 10° SSW 19:19:21 63° W 19:23:48 10° N
Cosmos 1238 Rocket 4.4 19:16:51 10° NNW 19:19:27 28° W 19:22:07 10° SSW
SL-19 R/B 4.3 19:16:21 10° SSE 19:22:03 74° ENE 19:28:12 10° NNW
OTV 4 2.3 19:20:25 10° SSW 19:22:33 18° SSE 19:22:38 18° SSE
Cosmos 1892 Rocket 3.9 19:18:32 10° N 19:22:42 42° ENE 19:26:07 14° SE
Cosmos 468 Rocket 4.2 19:19:50 10° N 19:24:57 51° ENE 19:28:51 17° SE
Cosmos 1025 Rocket 3.0 19:20:38 10° N 19:25:03 89° ENE 19:29:27 10° S
USA 229 DEB 3.8 19:20:42 10° NW 19:27:53 88° NE 19:35:09 10° SE
USA 229 3.8 19:20:48 10° NW 19:27:59 87° NE 19:35:15 10° SE
USA 186 3.9 19:31:51 13° NNE 19:31:51 13° NNE 19:32:17 10° N
Cosmos 2074 Rocket 4.0 19:24:13 10° S 19:30:28 87° E 19:36:48 10° N
Spot 2 Rocket 3.4 19:25:37 10° SSE 19:30:40 81° ENE 19:35:47 10° NNW
Meteor 1-5 Rocket 4.3 19:28:39 10° S 19:34:37 89° E 19:40:31 10° N
Cosmos 2082 4.2 19:30:45 10° SSE 19:35:52 35° ESE 19:37:59 26° ENE
Cosmos 2184 Rocket 4.0 19:30:37 10° S 19:36:56 87° W 19:43:14 10° N
FengYun 1-2 T 4.4 19:32:25 10° S 19:37:53 72° WSW 19:43:25 10° NNW
Hubble Space Telescope 3.2 19:37:11 10° SSW 19:38:21 11° S 19:38:56 11° SSE
NOSS 3-1 (A) 4.4 19:33:13 10° NNW 19:40:23 46° NE 19:44:07 29° E
Spot 1 3.9 19:39:07 32° SE 19:40:48 60° ENE 19:44:55 10° N
Meteor 2-13 Rocket 4.3 19:35:22 10° S 19:41:22 70° E 19:47:26 10° NNE
ERS-1 Rocket 4.4 19:45:10 21° NE 19:45:10 21° NE 19:47:49 10° NNE
ATLAS 2AS CENTAUR R/B 4.3 19:38:53 10° NNW 19:45:08 23° NNE 19:48:05 19° NE
Cosmos 1814 Rocket 3.9 19:40:58 10° NNW 19:46:04 58° ENE 19:47:53 37° SE
Cosmos 405 Rocket 2.7 19:42:10 10° N 19:46:15 85° E 19:48:31 25° SSE
Cosmos 1544 Rocket 3.4 19:42:26 10° S 19:46:43 65° E 19:51:00 10° NNE
Envisat 3.4 19:47:02 38° ENE 19:47:15 38° ENE 19:51:56 10° N
H-2A R/B 3.2 19:47:20 10° S 19:51:00 58° W 19:54:44 10° NNW
ALOS 3.4 19:46:46 10° S 19:51:13 44° W 19:55:43 10° NNW
CZ-2D R/B 3.2 19:49:35 24° S 19:51:49 80° WSW 19:55:39 10° NNW
Cosmos 371 Rocket 4.3 19:49:39 10° N 19:53:08 29° NE 19:53:08 29° NE
USA 32 4.2 19:49:00 10° N 19:54:02 46° E 19:54:07 46° E
Nadezhda 3 Rocket 3.9 19:48:02 10° N 19:54:11 68° E 19:59:43 13° SSE
Cosmos 2237 Rocket 2.1 19:48:52 10° NNW 19:54:33 65° ENE 19:56:29 41° SE
NOSS 0 Rocket 3.8 19:49:11 10° NNW 19:55:22 88° ENE 19:59:13 24° SSE
Cosmos 2297 Rocket 2.5 19:51:33 10° S 19:56:25 43° ESE 19:56:25 43° ESE
NOSS 3-1 (C) 4.0 19:50:54 10° NNW 19:58:26 68° NE 20:02:15 35° SE
COSMOS 2428 4.0 19:53:22 10° NW 19:58:37 40° WSW 20:03:52 10° S
Cosmos 1066 Rocket 4.3 19:53:58 10° N 19:59:28 52° ENE 20:00:03 50° E
Meteor 1-12 Rocket 4.2 19:56:59 10° S 20:02:53 67° E 20:08:45 10° NNE
Okean 2 4.4 20:00:36 10° NNW 20:04:37 46° W 20:08:37 10° SSW
Cosmos 2341 Rocket 4.0 19:59:01 10° S 20:05:17 63° E 20:11:35 10° NNE
Cosmos 2154 Rocket 3.9 20:00:03 10° S 20:06:24 84° E 20:12:46 10° N
Cosmos 2219 Rocket 2.6 20:01:07 10° NNW 20:06:38 61° WSW 20:10:46 18° S
Gbstr 26 Del rocket 4.2 20:04:31 10° WNW 20:07:47 27° NNW 20:08:15 27° N
Abrixas rocket 3.7 20:07:26 10° W 20:09:57 36° NW 20:09:57 36° NW
Helios 1B rocket 2.5 20:06:53 10° N 20:11:03 77° WNW 20:15:11 10° SSW
Helios 1A 3.3 20:10:06 42° SSW 20:11:18 64° WSW 20:15:27 10° NNW
Cosmos 1441 Rocket 4.5 20:11:12 10° N 20:13:31 34° N 20:13:31 34° N
Cosmos 1486 Rocket 3.8 20:10:46 10° SSW 20:16:04 78° ESE 20:16:55 62° NE
Cosmos 2227 Rocket 2.0 20:11:37 10° SSW 20:17:17 86° ESE 20:20:36 26° NNE
Atlas Centaur 2 4.2 20:14:41 10° SSW 20:18:27 18° S 20:18:27 18° S
BREEZE-M DEB (TANK) 4.0 20:20:39 10° W 20:23:48 38° SSW 20:25:26 32° S
Cosmos 1455 Rocket 3.5 20:19:54 10° SSW 20:24:12 59° W 20:28:32 10° N
Cosmos 841 Rocket 3.6 20:22:11 10° NNW 20:26:32 62° N 20:26:32 62° N
SL-16 R/B 2.7 20:24:50 10° NNW 20:29:17 47° NNE 20:29:17 47° NNE
ATLAS CENTAUR R/B 4.2 20:30:38 10° WSW 20:31:14 13° WSW 20:31:14 13° WSW
Resurs 01 Rocket 4.2 20:34:06 10° SW 20:37:14 19° W 20:40:22 10° NW
Cosmos 1763 Rocket 3.7 20:32:47 10° NNW 20:37:34 67° W 20:37:34 67° W
Meteor 2-8 Rocket 4.3 20:32:09 10° N 20:38:14 84° W 20:38:49 74° SSW
Cosmos 2333 Rocket 3.7 20:47:38 10° NW 20:52:41 32° WSW 20:55:04 24° SW
ATLAS 2AS CENTAUR R/B 3.7 21:29:47 10° NNW 21:35:33 47° N 21:35:33 47° N
Cosmos 2237 Rocket 4.4 21:34:15 10° WNW 21:38:01 18° W 21:38:23 18° WSW
Cosmos 2297 Rocket 4.3 21:36:12 10° WSW 21:38:27 21° W 21:38:27 21° W
